Погода в Остине

США     30°24′43″N   97°43′08″W
темп.,
°C
ветер,
м/с
пор.,
м/с
влажн.,
%
обл.,
%
осадки,
мм/ч
давл.,
гПа
погр.,
м
31 июля, сб
сб3101:00+28ю35714 0.0 1017187
04:00+25ююз33824 1.4 1016111
07:00+25ююз23833 3.7 101786
10:00+29ю22670 0.6 1018449
13:00+33юв124724 1.1 10171901
16:00+35ю4340100 0.1 10152386
19:00+32юв345097 0.2 1014276
22:00+30ююв485575 0.0 1015430
1 августа, вс
вс101:00+27ю59725 0.0 1015422
04:00+26ююз47760 0.2 1015277
07:00+25юз36781 0.3 1016186
10:00+30ююз34600 0.0 1017703
13:00+34ююз22428 0.0 10151877
16:00+34юв4545100 0.1 1013454
19:00+31ююз2252100 0.2 1013208
22:00+26зюз237844 0.5 1015117
2 августа, пн
пн201:00+25юз018139 1.7 101650
04:00+24зсз2382100 1.1 101679
07:00+24з2280100 1.4 101650
10:00+27сз346496 0.0 1017552
13:00+32ссз344993 0.0 10151486
16:00+34с3341100 0.1 10132338
19:00+33ссз2246100 0.1 1012343
22:00+29св3560100 0.1 1013125
3 августа, вт
вт301:00+26св3572100 0.9 1014128
04:00+25ссв358382 1.3 1013124
07:00+25ссв2384100 1.3 101499
10:00+28ссв44648 0.0 1015522
13:00+32св4346100 0.0 10141790
16:00+34св333236 0.0 10122354
19:00+33всв45355 0.0 1012751
22:00+29всв474567 0.0 1014219
4 августа, ср
ср401:00+26вюв23595 0.0 1014104
04:00+24св117013 0.0 101434
07:00+24всв337249 0.0 101573
10:00+28в4564100 0.0 1016598
13:00+33вюв454197 0.0 10162045
16:00+34вюв5534100 0.0 10142462
19:00+32вюв564262 0.0 1014702
22:00+28вюв355230 0.0 1015151